Location: Pasarilla del Rebollar
(40.6790°N, 5.0062°W)
Time: 10:33:49
(UTC+00:00)

COSMOS 2406 - Pass Details

Date: 22 April 2026
Orbit: 844 x 860 km, 71.0° (Epoch: 15 May)

Event Time Altitude Azimuth Distance (km) Brightness Sun altitude
Exits shadow 02:14:30 56° 340° (NNW) 1,015 3.6 -30.7°
Drops below altitude 10° 02:19:18 10° 18° (NNE) 2,503 6.5 -30.2°
Sets 02:21:48 0° 21° (NNE) 3,443 7.5 -30.0°
